ARKYD 6A (43130 NORAD) Tracking and Keplerian Element Data

This shows tracking and keplerian element data for the satellite.

Feedback or suggestion? Click here.




ElementValue
Catalog43130
NameARKYD 6A
Epoch Orbit33487
Epoch Day12.77909087
Epoch Year2024
RAAN101.7354
Inclination97.2995
Eccentricity0.0001767
Argument of Perigee22.5237
Mean Anonmoly337.6109
Mean Motion15.80834832
Decay Rate0.00285553
L11 43130U 18004V 24012.77909087 .00285553 00000+0 14420-2 0 9990
L22 43130 97.2995 101.7354 0001767 22.5237 337.6109 15.80834832334873



Live tracking and technical data element details for ARKYD 6A (NORAD 43130). ARKYD 6A can be tracked NOW for your location showing map with azimuth and elevation plus other details from your city location.







IsCatalogInMostPopularTable: catalog: 43130, numindb: 369
Update: records affected: 1



GetName: 43130 ARKYD 6A

Hit Count: updated at: Thu, 15 May 2025 18:16:50 GMT